Walvis Bay Airport

Jump to: basic info | weather | frequencies | runways | comments

Related pages: nearby airports | nearby navaids | notams | map

Basic information (top)

Codes: WVB FYWB
Location: lon -22.979900, lat 14.645300, elev 299 ft / 91 m msl
Status: medium_airport
Scheduled airline service: no
Links: Wikipedia Mobile

Weather (top)

Current conditions (rec'd 2014/11/01 00:00Z):

FYWB 010000Z AUTO 01001KT //// // ////// 12/09 Q1012

Airport forecast (rec'd 2014/10/31 06:18Z):

TAF TAF FYWB 310400Z 3106/0112 04007KT 9999 OVC010 
      BECMG 3107/3108 9999 BKN012 
      BECMG 3109/3111 31012KT CAVOK

Frequencies (top)

Verify before use: may be inaccurate or out of date.

APP: 122.5 MHz (APP)
TWR: 122.5 MHz (TWR)

Runways (top)

09/27: 7,001 x 98 ft (2,134 x 30 m) — paved — lighted

Latest comments (top)

No comments yet for Walvis Bay Airport

More... (top)

See also NOTAMs and nearby airports and navaids, or visit the Walvis Bay Airport page at the main OurAirports website..